Location: Clatteringshaws Loch
(55.0508°N, 4.2860°W)
Time: 14:00:29
(UTC+01:00)

SR - Visible Passes

Search period start: 24 July 2014 00:00
Search period end: 03 August 2014 00:00
Orbit: 575 x 890 km, 66.7° (Epoch: 24 July)

Date Brightness Start Highest point End Pass type
(mag) Time Alt. Az. Time Alt. Az. Time Alt. Az.
24 Jul ? 00:24:53 10° W 00:26:03 11° W 00:27:12 10° WSW visible
24 Jul ? 23:34:30 10° WNW 23:38:26 18° WSW 23:42:20 10° SSW visible
25 Jul ? 22:45:36 10° NW 22:50:40 29° WSW 22:55:40 10° S visible
26 Jul ? 23:42:48 10° W 23:43:37 10° W 23:44:25 10° WSW visible
27 Jul ? 22:52:08 10° WNW 22:56:00 18° WSW 22:59:50 10° SSW visible
30 Jul ? 22:09:47 10° WNW 22:13:35 18° WSW 22:17:20 10° SW visible
